YAOGAN-43 01A (60458 NORAD) Tracking and Keplerian Element Data

This shows tracking and keplerian element data for the satellite.

Feedback or suggestion? Click here.




ElementValue
Catalog60458
NameYAOGAN-43 01A
Epoch Orbit877
Epoch Day286.7956013
Epoch Year2024
RAAN54.0581
Inclination34.9997
Eccentricity0.000808
Argument of Perigee50.9599
Mean Anonmoly309.1834
Mean Motion15.22497771
Decay Rate0.00028874
L11 60458U 24148A 24286.79560130 .00028874 00000+0 12124-2 0 9995
L22 60458 34.9997 54.0581 0008080 50.9599 309.1834 15.22497771 8777



Live tracking and technical data element details for YAOGAN-43 01A (NORAD 60458). YAOGAN-43 01A can be tracked NOW for your location showing map with azimuth and elevation plus other details from your city location.







IsCatalogInMostPopularTable: catalog: 60458, numindb: 6
Update: records affected: 1



GetName: 60458 YAOGAN-43 01A

Hit Count: updated at: Wed, 04 Dec 2024 19:43:46 GMT